Triuchirapalli, India

2:34 PM IST on September 15, 2019 (GMT +0530)
Tiruchirappalli

Weather History for VOTR - July, 2019

Change the Weather History Date:

Saturday, July 20, 2019

  Actual Average Record
Temperature  
Mean Temperature 89 °F -  
Max Temperature 98 °F 92 °F 101 °F (2017)
Min Temperature 80 °F 80 °F 75 °F (2008)
Cooling Degree Days 24    
Growing Degree Days 39 (Base 50)    
Moisture  
Dew Point 69 °F    
Average Humidity 52    
Maximum Humidity 70    
Minimum Humidity 26    
Precipitation  
Precipitation 0.00 in - - ()
Sea Level Pressure  
Sea Level Pressure 29.62 in    
Wind  
Wind Speed 13 mph ()    
Max Wind Speed 23 mph    
Max Gust Speed 34 mph    
Visibility 4.3 miles    
Events      
Averages and records for this station are not official NWS values.
T = Trace of Precipitation, MM = Missing Value Source: Averaged Metar Reports

Daily Weather History Graph

Daily Weather History Graph

Search for Another Location

Airport or City:

Astronomy

Jul. 20, 2019 Rise Set
Actual Time 6:01 AM IST 6:41 PM IST
Civil Twilight 5:38 AM IST 7:04 PM IST
Nautical Twilight 5:12 AM IST 7:30 PM IST
Astronomical Twilight 4:45 AM IST 7:57 PM IST
Moon 9:21 PM IST (7/20) 8:38 AM IST (7/20)
Length of Visible Light 13h 25m
Length of Day
12h 40m
Waning Gibbous, 90% of the Moon is Illuminated
Jul 20
Waning Gibbous
Jul 25
Last Quarter
Aug 1
New
Aug 7
First Quarter
Aug 15
Full

Hourly Weather History & Observations

Time (IST) Temp. Heat Index Dew Point Humidity Pressure Visibility Wind Dir Wind Speed Gust Speed Precip Events Conditions
12:00 AM 82.4 °F 86.3 °F 69.8 °F 66% 29.65 in 3.7 mi West 11.5 mph 23.0 mph N/A   Scattered Clouds
12:30 AM 82.4 °F 86.3 °F 69.8 °F 66% 29.65 in 3.7 mi West 17.3 mph 28.8 mph N/A   Scattered Clouds
1:00 AM 82.4 °F 86.3 °F 69.8 °F 66% 29.65 in 3.7 mi West 17.3 mph 28.8 mph N/A   Scattered Clouds
1:30 AM 82.4 °F 86.3 °F 69.8 °F 66% 29.62 in 3.7 mi West 11.5 mph 23.0 mph N/A   Scattered Clouds
2:00 AM 82.4 °F 86.3 °F 69.8 °F 66% 29.62 in 3.7 mi West 11.5 mph 23.0 mph N/A   Scattered Clouds
2:30 AM 82 °F - 67 °F 52% 29.62 in 2 mi West 11.5 mph - -   Haze
2:30 AM 82.4 °F 85.4 °F 68.0 °F 62% 29.62 in 3.7 mi West 11.5 mph - N/A   Scattered Clouds
3:00 AM 82.4 °F 85.4 °F 68.0 °F 62% 29.62 in 3.7 mi West 9.2 mph 20.7 mph N/A   Scattered Clouds
3:30 AM 82.4 °F 85.4 °F 68.0 °F 62% 29.62 in 3.7 mi West 9.2 mph 20.7 mph N/A   Scattered Clouds
4:00 AM 82.4 °F 85.4 °F 68.0 °F 62% 29.62 in 3.7 mi West 9.2 mph 20.7 mph N/A   Scattered Clouds
4:30 AM 80.6 °F 83.2 °F 68.0 °F 65% 29.62 in 3.7 mi West 11.5 mph 23.0 mph N/A   Scattered Clouds
5:00 AM 80.6 °F 83.2 °F 68.0 °F 65% 29.62 in 3.7 mi West 9.2 mph 20.7 mph N/A   Scattered Clouds
5:30 AM 81 °F - 69 °F 60% 29.61 in 2 mi West 13.8 mph - -   Haze
5:30 AM 80.6 °F 83.9 °F 69.8 °F 70% 29.62 in 3.7 mi West 9.2 mph 20.7 mph N/A   Mostly Cloudy
6:00 AM 80.6 °F 83.9 °F 69.8 °F 70% 29.62 in 3.7 mi West 9.2 mph 20.7 mph N/A   Mostly Cloudy
6:30 AM 82.4 °F 86.3 °F 69.8 °F 66% 29.62 in 3.7 mi WNW 9.2 mph 20.7 mph N/A   Scattered Clouds
7:00 AM 82.4 °F 86.3 °F 69.8 °F 66% 29.65 in 3.7 mi WNW 9.2 mph 20.7 mph N/A   Scattered Clouds
7:30 AM 84.2 °F 88.4 °F 69.8 °F 62% 29.65 in 3.7 mi West 9.2 mph 20.7 mph N/A   Scattered Clouds
8:00 AM 84.2 °F 87.3 °F 68.0 °F 58% 29.65 in 3.7 mi West 9.2 mph 20.7 mph N/A   Scattered Clouds
8:30 AM 85 °F - 69 °F 49% 29.65 in 2 mi West 17.3 mph - -   Haze
8:30 AM 84.2 °F 87.3 °F 68.0 °F 58% 29.65 in 3.7 mi West 13.8 mph 25.3 mph N/A   Scattered Clouds
9:00 AM 86.0 °F 89.4 °F 68.0 °F 55% 29.65 in 3.7 mi West 11.5 mph 23.0 mph N/A   Scattered Clouds
9:30 AM 86.0 °F 89.4 °F 68.0 °F 55% 29.65 in 3.7 mi West 16.1 mph 27.6 mph N/A   Scattered Clouds
10:00 AM 87.8 °F 91.4 °F 68.0 °F 52% 29.65 in 5.0 mi West 17.3 mph 28.8 mph N/A   Scattered Clouds
10:30 AM 89.6 °F 93.4 °F 68.0 °F 49% 29.65 in 5.0 mi West 17.3 mph 28.8 mph N/A   Scattered Clouds
11:00 AM 91.4 °F 95.4 °F 68.0 °F 46% 29.62 in 5.0 mi WNW 17.3 mph 28.8 mph N/A   Scattered Clouds
11:30 AM 93 °F - 69 °F 35% 29.62 in 2 mi WNW 23.0 mph - -   Haze
11:30 AM 93.2 °F 97.7 °F 68.0 °F 44% 29.62 in 5.0 mi WNW 20.7 mph 32.2 mph N/A   Scattered Clouds
12:30 PM 95.0 °F 99.5 °F 68.0 °F 41% 29.62 in 6.2 mi WNW 23.0 mph 34.5 mph N/A   Scattered Clouds
1:00 PM 96.8 °F 101.8 °F 68.0 °F 39% 29.62 in 6.2 mi WNW 20.7 mph 32.2 mph N/A   Scattered Clouds
1:30 PM 96.8 °F 101.8 °F 68.0 °F 39% 29.59 in 6.2 mi WNW 20.7 mph 32.2 mph N/A   Scattered Clouds
2:00 PM 96.8 °F 101.8 °F 68.0 °F 39% 29.59 in 6.2 mi West 20.7 mph 32.2 mph N/A   Scattered Clouds
2:30 PM 98 °F - 66 °F 26% 29.57 in 6 mi West 20.7 mph - -   Partly Cloudy
2:30 PM 98.6 °F 102.8 °F 66.2 °F 35% 29.59 in 6.2 mi West 20.7 mph 32.2 mph N/A   Mostly Cloudy
3:00 PM 98.6 °F 104.1 °F 68.0 °F 37% 29.56 in 6.2 mi West 21.9 mph 33.4 mph N/A   Mostly Cloudy
3:30 PM 98.6 °F 104.1 °F 68.0 °F 37% 29.56 in 6.2 mi West 18.4 mph 29.9 mph N/A   Mostly Cloudy
4:00 PM 96.8 °F 101.8 °F 68.0 °F 39% 29.56 in 6.2 mi West 17.3 mph 28.8 mph N/A   Mostly Cloudy
4:30 PM 95.0 °F 99.5 °F 68.0 °F 41% 29.56 in 6.2 mi West 18.4 mph 29.9 mph N/A   Mostly Cloudy
5:00 PM 95.0 °F 99.5 °F 68.0 °F 41% 29.56 in 6.2 mi West 15.0 mph 26.5 mph N/A   Mostly Cloudy
5:30 PM 95 °F - 67 °F 31% 29.57 in 6 mi West 13.8 mph - -   Partly Cloudy
5:30 PM 95.0 °F 99.5 °F 68.0 °F 41% 29.56 in 6.2 mi West 13.8 mph 25.3 mph N/A   Mostly Cloudy
6:00 PM 93.2 °F 98.8 °F 69.8 °F 46% 29.59 in 5.0 mi West 13.8 mph 25.3 mph N/A   Mostly Cloudy
6:30 PM 93.2 °F 98.8 °F 69.8 °F 46% 29.59 in 5.0 mi West 11.5 mph 23.0 mph N/A   Mostly Cloudy
7:00 PM 93.2 °F 98.8 °F 69.8 °F 46% 29.62 in 4.3 mi West 13.8 mph 25.3 mph N/A   Mostly Cloudy
7:30 PM 91.4 °F 96.8 °F 69.8 °F 49% 29.62 in 3.7 mi West 11.5 mph 23.0 mph N/A   Mostly Cloudy
8:00 PM 89.6 °F 94.7 °F 69.8 °F 52% 29.65 in 3.7 mi West 12.7 mph 24.2 mph N/A   Mostly Cloudy
8:30 PM 89 °F - 69 °F 41% 29.65 in 2 mi West 11.5 mph - -   Haze
8:30 PM 87.8 °F 91.4 °F 68.0 °F 52% 29.65 in 3.7 mi West 11.5 mph - N/A   Mostly Cloudy
9:00 PM 87.8 °F 92.6 °F 69.8 °F 55% 29.65 in 3.7 mi West 11.5 mph - N/A   Mostly Cloudy
9:30 PM 87.8 °F 92.6 °F 69.8 °F 55% 29.68 in 3.7 mi West 11.5 mph - N/A   Mostly Cloudy
10:00 PM 87.8 °F 92.6 °F 69.8 °F 55% 29.68 in 3.7 mi West 11.5 mph - N/A   Mostly Cloudy
10:30 PM 86.0 °F 90.4 °F 69.8 °F 58% 29.68 in 3.7 mi West 10.4 mph - N/A   Scattered Clouds
11:00 PM 86.0 °F 90.4 °F 69.8 °F 58% 29.68 in 3.7 mi West 10.4 mph - N/A   Scattered Clouds
11:30 PM 86 °F - 72 °F 54% 29.69 in 2 mi West 11.5 mph - -   Haze
11:30 PM 86.0 °F 91.8 °F 71.6 °F 62% 29.68 in 3.7 mi West 11.5 mph - N/A   Scattered Clouds